Location: Alpha Ridge Park
(39.3209°N, 76.9128°W)
Time: 10:40:44
(UTC-04:00)

S-56A Canister/Altair - Pass Details

Date: 22 May 2019
Orbit: 633 x 2499 km, 38.9° (Epoch: 18 June)

Event Time Altitude Azimuth Distance (km) Brightness Sun altitude
Rises 00:39:10 0° 190° (S) 3,151 - -30.1°
Reaches altitude 10° 00:42:22 10° 167° (SSE) 2,434 - -30.1°
Maximum altitude 00:45:34 15° 132° (SE) 2,318 - -30.2°
Drops below altitude 10° 00:49:21 10° 99° (E) 2,993 - -30.2°
Exits shadow 00:49:42 - 97° (E) 3,084 10.5 -30.3°
Sets 00:54:02 0° 79° (E) 4,373 11.5 -30.3°
